This is the latest recevied weather packets stored in our database for station/object KI4HRG. If no packets are shown the sender has not sent any weather packets the latest 10 day(s).
| Time | Temp. | Humidity | Pressure | Rain* | Wind** | Luminosity | Snow |
|---|---|---|---|---|---|---|---|
| 1777844186 | 21.67° C | 38% | 1017.8 hPa | 0 mm | - | 374 W/m² | - |
| 1777843882 | 22.22° C | 38% | 1017.8 hPa | 0 mm | - | 395 W/m² | - |
| 1777843580 | 21.67° C | 38% | 1018 hPa | 0 mm | - | 392 W/m² | - |
| 1777843277 | 22.22° C | 37% | 1018.1 hPa | 0 mm | - | 404 W/m² | - |
| 1777842975 | 21.67° C | 39% | 1018.2 hPa | 0 mm | - | 430 W/m² | - |
| 1777842670 | 21.67° C | 39% | 1018.2 hPa | 0 mm | - | 442 W/m² | - |
| 1777842367 | 22.22° C | 37% | 1018.2 hPa | 0 mm | - | 453 W/m² | - |
| 1777842063 | 22.22° C | 39% | 1018.2 hPa | 0 mm | - | 453 W/m² | - |
| 1777841759 | 22.22° C | 36% | 1018.3 hPa | 0 mm | - | 473 W/m² | - |
| 1777841455 | 21.67° C | 37% | 1018.4 hPa | 0 mm | - | 493 W/m² | - |
| 1777841153 | 22.22° C | 37% | 1018.5 hPa | 0 mm | - | 526 W/m² | - |
| 1777840850 | 22.22° C | 37% | 1018.6 hPa | 0 mm | - | 538 W/m² | - |
| 1777840547 | 21.11° C | 39% | 1018.8 hPa | 0 mm | - | 553 W/m² | - |
| 1777840244 | 21.67° C | 37% | 1018.9 hPa | 0 mm | - | 606 W/m² | - |
| 1777839942 | 21.67° C | 38% | 1018.9 hPa | 0 mm | - | 572 W/m² | - |
| 1777839639 | 22.22° C | 38% | 1018.9 hPa | 0 mm | - | 597 W/m² | - |
| 1777839338 | 21.11° C | 38% | 1019.2 hPa | 0 mm | - | 624 W/m² | - |
| 1777839034 | 21.11° C | 38% | 1019.2 hPa | 0 mm | - | 586 W/m² | - |
| 1777838731 | 21.67° C | 38% | 1019.2 hPa | 0 mm | - | 591 W/m² | - |
| 1777838427 | 21.11° C | 39% | 1019.2 hPa | 0 mm | - | 585 W/m² | - |
| 1777838125 | 21.67° C | 41% | 1019.3 hPa | 0 mm | - | 610 W/m² | - |
| 1777837821 | 22.78° C | 39% | 1019.4 hPa | 0 mm | - | 642 W/m² | - |
| 1777837519 | 21.67° C | 40% | 1019.4 hPa | 0 mm | - | 632 W/m² | - |
| 1777837218 | 21.67° C | 39% | 1019.6 hPa | 0 mm | - | 614 W/m² | - |
| 1777836915 | 21.67° C | 37% | 1019.8 hPa | 0 mm | - | 639 W/m² | - |
* Rain latest hour (hover to see other rain measurements)
** Current wind speed in m/s (hover to see current wind gust speed)